Time,TemperatureF,DewpointF,PressureIn,WindDirection,WindDirectionDegrees,WindSpeedMPH,WindSpeedGustMPH,Humidity,HourlyPrecipIn,Conditions,Clouds,dailyrainin,SoftwareType,DateUTC
2013-05-04 00:01:00,42.6,38.7,30.26,SE,142,0.0,0.0,86,0.00,,---,0.00,VWS V14.01,2013-05-04 04:01:00,
2013-05-04 00:06:00,41.9,38.3,30.26,SE,142,0.0,0.0,87,0.00,,---,0.00,VWS V14.01,2013-05-04 04:06:00,
2013-05-04 00:11:00,41.6,38.6,30.26,SE,142,0.0,0.0,89,0.00,,---,0.00,VWS V14.01,2013-05-04 04:11:00,
2013-05-04 00:16:00,41.5,38.5,30.26,SE,142,0.0,0.0,89,0.00,,---,0.00,VWS V14.01,2013-05-04 04:16:00,
2013-05-04 00:21:00,41.2,38.5,30.26,SE,142,0.0,0.0,90,0.00,,---,0.00,VWS V14.01,2013-05-04 04:21:00,
2013-05-04 00:26:00,40.9,38.2,30.26,SE,142,0.0,0.0,90,0.00,,---,0.00,VWS V14.01,2013-05-04 04:26:00,
2013-05-04 00:31:00,41.1,38.7,30.26,SE,142,0.0,0.0,91,0.00,,---,0.00,VWS V14.01,2013-05-04 04:31:00,
2013-05-04 00:36:00,40.8,38.1,30.26,SE,142,0.0,0.0,90,0.00,,---,0.00,VWS V14.01,2013-05-04 04:36:00,
2013-05-04 00:41:00,40.5,38.1,30.26,SE,142,0.0,0.0,91,0.00,,---,0.00,VWS V14.01,2013-05-04 04:41:00,
2013-05-04 00:46:00,40.5,38.4,30.26,SE,142,0.0,0.0,92,0.00,,---,0.00,VWS V14.01,2013-05-04 04:46:00,
2013-05-04 00:51:00,40.5,38.4,30.26,SE,142,0.0,0.0,92,0.00,,---,0.00,VWS V14.01,2013-05-04 04:51:00,
2013-05-04 00:56:00,40.2,38.1,30.26,SE,142,0.0,0.0,92,0.00,,---,0.00,VWS V14.01,2013-05-04 04:56:00,
2013-05-04 01:01:00,39.8,37.7,30.26,SE,142,0.0,0.0,92,0.00,,---,0.00,VWS V14.01,2013-05-04 05:01:00,
2013-05-04 01:06:00,40.1,38.2,30.26,SE,142,0.0,0.0,93,0.00,,---,0.00,VWS V14.01,2013-05-04 05:06:00,
2013-05-04 01:11:00,40.2,38.6,30.26,SE,142,0.0,0.0,94,0.00,,---,0.00,VWS V14.01,2013-05-04 05:11:00,
2013-05-04 01:16:00,40.2,38.6,30.25,SE,142,0.0,0.0,94,0.00,,---,0.00,VWS V14.01,2013-05-04 05:16:00,
2013-05-04 01:21:00,40.3,38.7,30.25,SE,142,0.0,0.0,94,0.00,,---,0.00,VWS V14.01,2013-05-04 05:21:00,
2013-05-04 01:26:00,40.2,38.3,30.25,SE,142,0.0,0.0,93,0.00,,---,0.00,VWS V14.01,2013-05-04 05:26:00,
2013-05-04 01:31:00,39.9,38.0,30.25,SE,142,0.0,0.0,93,0.00,,---,0.00,VWS V14.01,2013-05-04 05:31:00,
2013-05-04 01:36:00,39.8,38.2,30.25,SE,142,0.0,0.0,94,0.00,,---,0.00,VWS V14.01,2013-05-04 05:36:00,
2013-05-04 01:41:00,39.8,38.2,30.25,SE,142,0.0,0.0,94,0.00,,---,0.00,VWS V14.01,2013-05-04 05:41:00,
2013-05-04 01:46:00,39.9,38.3,30.24,SE,142,0.0,0.0,94,0.00,,---,0.00,VWS V14.01,2013-05-04 05:46:00,
2013-05-04 01:51:00,39.8,38.5,30.24,SE,142,0.0,0.0,95,0.00,,---,0.00,VWS V14.01,2013-05-04 05:51:00,
2013-05-04 01:56:00,39.6,38.3,30.24,SE,142,0.0,0.0,95,0.00,,---,0.00,VWS V14.01,2013-05-04 05:56:00,
2013-05-04 02:01:00,39.6,38.3,30.23,SE,142,0.0,0.0,95,0.00,,---,0.00,VWS V14.01,2013-05-04 06:01:00,
2013-05-04 02:06:00,39.3,38.0,30.23,SE,142,0.0,0.0,95,0.00,,---,0.00,VWS V14.01,2013-05-04 06:06:00,
2013-05-04 02:11:00,39.3,38.3,30.23,SE,142,0.0,0.0,96,0.00,,---,0.00,VWS V14.01,2013-05-04 06:11:00,
2013-05-04 02:16:00,39.3,38.0,30.23,SE,142,0.0,0.0,95,0.00,,---,0.00,VWS V14.01,2013-05-04 06:16:00,
2013-05-04 02:21:00,39.3,38.0,30.23,SE,142,0.0,0.0,95,0.00,,---,0.00,VWS V14.01,2013-05-04 06:21:00,
2013-05-04 02:26:00,39.3,38.0,30.23,SE,142,0.0,0.0,95,0.00,,---,0.00,VWS V14.01,2013-05-04 06:26:00,
2013-05-04 02:31:00,39.3,38.0,30.23,SE,142,0.0,0.0,95,0.00,,---,0.00,VWS V14.01,2013-05-04 06:31:00,
2013-05-04 02:36:00,39.3,38.0,30.23,SE,142,0.0,0.0,95,0.00,,---,0.00,VWS V14.01,2013-05-04 06:36:00,
2013-05-04 02:41:00,39.3,38.0,30.23,SE,142,0.0,0.0,95,0.00,,---,0.00,VWS V14.01,2013-05-04 06:41:00,
2013-05-04 02:46:00,39.3,38.0,30.22,SE,142,0.0,0.0,95,0.00,,---,0.00,VWS V14.01,2013-05-04 06:46:00,
2013-05-04 02:51:00,39.3,38.0,30.22,SE,142,0.0,0.0,95,0.00,,---,0.00,VWS V14.01,2013-05-04 06:51:00,
2013-05-04 02:56:00,39.3,38.0,30.22,SE,142,0.0,0.0,95,0.00,,---,0.00,VWS V14.01,2013-05-04 06:56:00,
2013-05-04 03:01:00,39.3,38.0,30.22,SE,142,0.0,0.0,95,0.00,,---,0.00,VWS V14.01,2013-05-04 07:01:00,
2013-05-04 03:06:00,39.3,38.0,30.22,SE,142,0.0,0.0,95,0.00,,---,0.00,VWS V14.01,2013-05-04 07:06:00,
2013-05-04 03:11:00,39.3,38.0,30.22,SE,142,0.0,0.0,95,0.00,,---,0.00,VWS V14.01,2013-05-04 07:11:00,
2013-05-04 03:16:00,39.3,38.0,30.21,SE,142,0.0,0.0,95,0.00,,---,0.00,VWS V14.01,2013-05-04 07:16:00,
2013-05-04 03:21:00,39.3,38.0,30.21,SE,142,0.0,0.0,95,0.00,,---,0.00,VWS V14.01,2013-05-04 07:21:00,
2013-05-04 03:26:00,39.3,38.0,30.21,SE,142,0.0,0.0,95,0.00,,---,0.00,VWS V14.01,2013-05-04 07:26:00,
2013-05-04 03:31:00,39.3,38.0,30.21,SE,142,0.0,0.0,95,0.00,,---,0.00,VWS V14.01,2013-05-04 07:31:00,
2013-05-04 03:36:00,39.3,38.0,30.21,SE,142,0.0,0.0,95,0.00,,---,0.00,VWS V14.01,2013-05-04 07:36:00,
2013-05-04 03:41:00,39.3,38.0,30.21,SE,142,0.0,0.0,95,0.00,,---,0.00,VWS V14.01,2013-05-04 07:41:00,
2013-05-04 03:46:00,39.3,38.0,30.20,SE,142,0.0,0.0,95,0.00,,---,0.00,VWS V14.01,2013-05-04 07:46:00,
2013-05-04 03:51:00,39.3,38.0,30.20,SE,142,0.0,0.0,95,0.00,,---,0.00,VWS V14.01,2013-05-04 07:51:00,
2013-05-04 03:56:00,39.3,38.0,30.20,SE,142,0.0,0.0,95,0.00,,---,0.00,VWS V14.01,2013-05-04 07:56:00,
2013-05-04 04:01:00,39.3,38.0,30.20,SE,142,0.0,0.0,95,0.00,,---,0.00,VWS V14.01,2013-05-04 08:01:00,
2013-05-04 04:06:00,39.3,38.0,30.20,SE,142,0.0,0.0,95,0.00,,---,0.00,VWS V14.01,2013-05-04 08:06:00,
2013-05-04 04:11:00,39.3,38.0,30.20,SE,142,0.0,0.0,95,0.00,,---,0.00,VWS V14.01,2013-05-04 08:11:00,
2013-05-04 04:16:00,39.3,38.0,30.20,SE,142,0.0,0.0,95,0.00,,---,0.00,VWS V14.01,2013-05-04 08:16:00,
2013-05-04 04:21:00,39.3,38.0,30.20,SE,142,0.0,0.0,95,0.00,,---,0.00,VWS V14.01,2013-05-04 08:21:00,
2013-05-04 04:26:00,39.3,38.0,30.20,SE,142,0.0,0.0,95,0.00,,---,0.00,VWS V14.01,2013-05-04 08:26:00,
2013-05-04 04:31:00,39.3,38.0,30.20,SE,142,0.0,0.0,95,0.00,,---,0.00,VWS V14.01,2013-05-04 08:31:00,
2013-05-04 04:36:00,39.3,38.0,30.20,SE,142,0.0,0.0,95,0.00,,---,0.00,VWS V14.01,2013-05-04 08:36:00,
2013-05-04 04:41:00,39.3,38.0,30.20,SE,142,0.0,0.0,95,0.00,,---,0.00,VWS V14.01,2013-05-04 08:41:00,
2013-05-04 04:46:00,39.3,38.0,30.20,SE,142,0.0,0.0,95,0.00,,---,0.00,VWS V14.01,2013-05-04 08:46:00,
2013-05-04 04:51:00,39.3,38.0,30.20,SE,142,0.0,0.0,95,0.00,,---,0.00,VWS V14.01,2013-05-04 08:51:00,
2013-05-04 04:56:00,39.3,38.0,30.20,SE,142,0.0,0.0,95,0.00,,---,0.00,VWS V14.01,2013-05-04 08:56:00,
2013-05-04 05:01:00,39.3,38.0,30.20,SE,142,0.0,0.0,95,0.00,,---,0.00,VWS V14.01,2013-05-04 09:01:00,
2013-05-04 05:06:00,39.3,38.0,30.20,SE,142,0.0,0.0,95,0.00,,---,0.00,VWS V14.01,2013-05-04 09:06:00,
2013-05-04 05:11:00,39.3,38.0,30.20,SE,142,0.0,0.0,95,0.00,,---,0.00,VWS V14.01,2013-05-04 09:11:00,
2013-05-04 05:16:00,39.3,38.0,30.20,SE,142,0.0,0.0,95,0.00,,---,0.00,VWS V14.01,2013-05-04 09:16:00,
2013-05-04 05:21:00,39.3,38.0,30.20,SE,142,0.0,0.0,95,0.00,,---,0.00,VWS V14.01,2013-05-04 09:21:00,
2013-05-04 05:26:00,39.3,38.0,30.20,SE,142,0.0,0.0,95,0.00,,---,0.00,VWS V14.01,2013-05-04 09:26:00,
2013-05-04 05:31:00,39.3,38.0,30.21,SE,142,0.0,0.0,95,0.00,,---,0.00,VWS V14.01,2013-05-04 09:31:00,
2013-05-04 05:36:00,39.3,38.0,30.21,SE,142,0.0,0.0,95,0.00,,---,0.00,VWS V14.01,2013-05-04 09:36:00,
2013-05-04 05:41:00,39.3,38.0,30.21,SE,142,0.0,0.0,95,0.00,,---,0.00,VWS V14.01,2013-05-04 09:41:00,
2013-05-04 05:46:00,39.3,38.0,30.20,SE,142,0.0,0.0,95,0.00,,---,0.00,VWS V14.01,2013-05-04 09:46:00,
2013-05-04 05:51:00,39.3,38.0,30.20,SE,142,0.0,0.0,95,0.00,,---,0.00,VWS V14.01,2013-05-04 09:51:00,
2013-05-04 05:56:00,39.3,38.0,30.20,SE,142,0.0,0.0,95,0.00,,---,0.00,VWS V14.01,2013-05-04 09:56:00,
2013-05-04 06:01:00,39.3,38.0,30.21,SE,142,0.0,0.0,95,0.00,,---,0.00,VWS V14.01,2013-05-04 10:01:00,
2013-05-04 06:06:00,39.3,38.0,30.21,SE,142,0.0,0.0,95,0.00,,---,0.00,VWS V14.01,2013-05-04 10:06:00,
2013-05-04 06:11:00,39.3,38.0,30.21,SE,142,0.0,0.0,95,0.00,,---,0.00,VWS V14.01,2013-05-04 10:11:00,
2013-05-04 06:16:00,39.3,38.0,30.21,SE,142,0.0,0.0,95,0.00,,---,0.00,VWS V14.01,2013-05-04 10:16:00,
2013-05-04 06:21:00,39.3,38.0,30.21,SE,142,0.0,0.0,95,0.00,,---,0.00,VWS V14.01,2013-05-04 10:21:00,
2013-05-04 06:26:00,39.3,38.0,30.21,SE,142,0.0,0.0,95,0.00,,---,0.00,VWS V14.01,2013-05-04 10:26:00,
2013-05-04 06:31:00,39.3,38.0,30.21,SE,142,0.0,0.0,95,0.00,,---,0.00,VWS V14.01,2013-05-04 10:31:00,
2013-05-04 06:36:00,39.3,38.0,30.21,SE,142,0.0,0.0,95,0.00,,---,0.00,VWS V14.01,2013-05-04 10:36:00,
2013-05-04 06:41:00,39.3,38.0,30.21,SE,142,0.0,0.0,95,0.00,,---,0.00,VWS V14.01,2013-05-04 10:41:00,
2013-05-04 06:46:00,39.3,38.0,30.22,SE,142,0.0,0.0,95,0.00,,---,0.00,VWS V14.01,2013-05-04 10:46:00,
2013-05-04 06:51:00,39.3,38.0,30.22,SE,142,0.0,0.0,95,0.00,,---,0.00,VWS V14.01,2013-05-04 10:51:00,
2013-05-04 06:56:00,39.3,38.0,30.22,SE,142,0.0,0.0,95,0.00,,---,0.00,VWS V14.01,2013-05-04 10:56:00,
2013-05-04 07:01:00,39.3,38.0,30.22,SE,142,0.0,0.0,95,0.00,,---,0.00,VWS V14.01,2013-05-04 11:01:00,
2013-05-04 07:06:00,39.3,38.0,30.22,SE,142,0.0,0.0,95,0.00,,---,0.00,VWS V14.01,2013-05-04 11:06:00,
2013-05-04 07:11:00,39.3,38.0,30.22,SE,142,0.0,0.0,95,0.00,,---,0.00,VWS V14.01,2013-05-04 11:11:00,
2013-05-04 07:16:00,39.3,38.0,30.22,SE,142,0.0,0.0,95,0.00,,---,0.00,VWS V14.01,2013-05-04 11:16:00,
2013-05-04 07:21:00,39.3,38.0,30.22,SE,142,0.0,0.0,95,0.00,,---,0.00,VWS V14.01,2013-05-04 11:21:00,
2013-05-04 07:26:00,39.3,38.0,30.22,SE,142,0.0,0.0,95,0.00,,---,0.00,VWS V14.01,2013-05-04 11:26:00,
2013-05-04 07:31:00,39.3,38.0,30.23,SE,142,0.0,0.0,95,0.00,,---,0.00,VWS V14.01,2013-05-04 11:31:00,
2013-05-04 07:36:00,39.3,38.0,30.23,SE,142,0.0,0.0,95,0.00,,---,0.00,VWS V14.01,2013-05-04 11:36:00,
2013-05-04 07:41:00,39.3,38.0,30.23,SE,142,0.0,0.0,95,0.00,,---,0.00,VWS V14.01,2013-05-04 11:41:00,
2013-05-04 07:46:00,39.3,38.0,30.23,SE,142,0.0,0.0,95,0.00,,---,0.00,VWS V14.01,2013-05-04 11:46:00,
2013-05-04 07:51:00,39.3,38.0,30.23,SE,142,0.0,0.0,95,0.00,,---,0.00,VWS V14.01,2013-05-04 11:51:00,
2013-05-04 07:56:00,39.3,38.0,30.23,SE,142,0.0,0.0,95,0.00,,---,0.00,VWS V14.01,2013-05-04 11:56:00,
2013-05-04 08:01:00,39.3,38.0,30.23,SE,142,0.0,0.0,95,0.00,,---,0.00,VWS V14.01,2013-05-04 12:01:00,
2013-05-04 08:06:00,39.3,38.0,30.23,SE,142,0.0,0.0,95,0.00,,---,0.00,VWS V14.01,2013-05-04 12:06:00,
2013-05-04 08:11:00,39.3,38.0,30.23,SE,142,0.0,0.0,95,0.00,,---,0.00,VWS V14.01,2013-05-04 12:11:00,
2013-05-04 08:16:00,39.3,38.0,30.23,SE,142,0.0,0.0,95,0.00,,---,0.00,VWS V14.01,2013-05-04 12:16:00,
2013-05-04 08:21:00,39.3,38.0,30.23,SE,142,0.0,0.0,95,0.00,,---,0.00,VWS V14.01,2013-05-04 12:21:00,
2013-05-04 08:26:00,39.3,38.0,30.23,SE,142,0.0,0.0,95,0.00,,---,0.00,VWS V14.01,2013-05-04 12:26:00,
2013-05-04 08:32:00,39.3,38.0,30.23,SE,142,0.0,0.0,95,0.00,,---,0.00,VWS V14.01,2013-05-04 12:32:00,
2013-05-04 08:37:00,39.3,38.0,30.23,SE,142,0.0,0.0,95,0.00,,---,0.00,VWS V14.01,2013-05-04 12:37:00,
2013-05-04 08:42:00,39.3,38.0,30.23,SE,142,0.0,0.0,95,0.00,,---,0.00,VWS V14.01,2013-05-04 12:42:00,
2013-05-04 08:47:00,39.3,38.0,30.23,SE,142,0.0,0.0,95,0.00,,---,0.00,VWS V14.01,2013-05-04 12:47:00,
2013-05-04 08:52:00,39.3,38.0,30.23,SE,142,0.0,0.0,95,0.00,,---,0.00,VWS V14.01,2013-05-04 12:52:00,
2013-05-04 08:57:00,47.6,40.4,30.23,ENE,68,1.0,6.0,76,0.00,,---,0.00,VWS V14.01,2013-05-04 12:57:00,
2013-05-04 09:02:00,48.0,41.8,30.22,East,95,3.0,4.0,79,0.00,,---,0.00,VWS V14.01,2013-05-04 13:02:00,
2013-05-04 09:04:00,48.0,41.2,30.22,ENE,59,0.0,5.0,77,0.00,,---,0.00,VWS V14.01,2013-05-04 13:04:00,
2013-05-04 09:09:00,47.7,41.5,30.22,ESE,109,2.0,4.0,79,0.00,,---,0.00,VWS V14.01,2013-05-04 13:09:00,
2013-05-04 09:14:00,48.8,42.9,30.22,SE,126,0.0,5.0,80,0.00,,---,0.00,VWS V14.01,2013-05-04 13:14:00,
2013-05-04 09:19:00,49.2,43.0,30.22,North,5,0.0,4.0,79,0.00,,---,0.00,VWS V14.01,2013-05-04 13:19:00,
2013-05-04 09:24:00,49.2,41.6,30.22,SE,131,0.0,11.0,75,0.00,,---,0.00,VWS V14.01,2013-05-04 13:24:00,
2013-05-04 09:29:00,49.5,41.9,30.22,ESE,107,0.0,10.0,75,0.00,,---,0.00,VWS V14.01,2013-05-04 13:29:00,
2013-05-04 09:34:00,49.4,41.1,30.22,East,94,2.0,9.0,73,0.00,,---,0.00,VWS V14.01,2013-05-04 13:34:00,
2013-05-04 09:39:00,49.2,41.3,30.22,SE,132,7.0,14.0,74,0.00,,---,0.00,VWS V14.01,2013-05-04 13:39:00,
2013-05-04 09:44:00,49.2,41.6,30.22,SE,125,6.0,8.0,75,0.00,,---,0.00,VWS V14.01,2013-05-04 13:44:00,
2013-05-04 09:49:00,49.5,41.9,30.21,East,88,0.0,9.0,75,0.00,,---,0.00,VWS V14.01,2013-05-04 13:49:00,
2013-05-04 09:54:00,49.4,41.5,30.21,SE,128,3.0,12.0,74,0.00,,---,0.00,VWS V14.01,2013-05-04 13:54:00,
2013-05-04 09:59:00,49.5,41.6,30.21,East,86,0.0,9.0,74,0.00,,---,0.00,VWS V14.01,2013-05-04 13:59:00,
2013-05-04 10:04:00,49.9,41.2,30.21,East,83,2.0,10.0,72,0.00,,---,0.00,VWS V14.01,2013-05-04 14:04:00,
2013-05-04 10:09:00,50.7,41.3,30.21,ESE,123,0.0,10.0,70,0.00,,---,0.00,VWS V14.01,2013-05-04 14:09:00,
2013-05-04 10:14:00,50.8,41.0,30.21,East,99,1.0,7.0,69,0.00,,---,0.00,VWS V14.01,2013-05-04 14:14:00,
2013-05-04 10:19:00,51.7,41.5,30.21,East,81,3.0,7.0,68,0.00,,---,0.00,VWS V14.01,2013-05-04 14:19:00,
2013-05-04 10:24:00,52.2,43.5,30.21,ENE,76,5.0,9.0,72,0.00,,---,0.00,VWS V14.01,2013-05-04 14:24:00,
2013-05-04 10:29:00,52.6,40.8,30.21,SE,131,6.0,6.0,64,0.00,,---,0.00,VWS V14.01,2013-05-04 14:29:00,
2013-05-04 10:34:00,52.2,41.6,30.21,East,89,6.0,12.0,67,0.00,,---,0.00,VWS V14.01,2013-05-04 14:34:00,
2013-05-04 10:39:00,52.8,42.2,30.21,East,98,12.0,12.0,67,0.00,,---,0.00,VWS V14.01,2013-05-04 14:39:00,
2013-05-04 10:44:00,52.0,41.0,30.21,East,85,2.0,12.0,66,0.00,,---,0.00,VWS V14.01,2013-05-04 14:44:00,
2013-05-04 10:49:00,53.1,42.5,30.21,ENE,63,0.0,5.0,67,0.00,,---,0.00,VWS V14.01,2013-05-04 14:49:00,
2013-05-04 10:54:00,52.8,41.8,30.21,East,101,12.0,12.0,66,0.00,,---,0.00,VWS V14.01,2013-05-04 14:54:00,
2013-05-04 10:59:00,53.1,42.1,30.21,East,101,0.0,5.0,66,0.00,,---,0.00,VWS V14.01,2013-05-04 14:59:00,
2013-05-04 11:04:00,53.9,41.6,30.21,NE,42,0.0,6.0,63,0.00,,---,0.00,VWS V14.01,2013-05-04 15:04:00,
2013-05-04 11:09:00,54.2,43.1,30.21,ESE,103,3.0,7.0,66,0.00,,---,0.00,VWS V14.01,2013-05-04 15:09:00,
2013-05-04 11:14:00,54.7,44.0,30.21,ENE,76,4.0,11.0,67,0.00,,---,0.00,VWS V14.01,2013-05-04 15:14:00,
2013-05-04 11:19:00,53.8,41.5,30.21,SE,126,3.0,13.0,63,0.00,,---,0.00,VWS V14.01,2013-05-04 15:19:00,
2013-05-04 11:24:00,53.9,42.0,30.21,ESE,108,7.0,7.0,64,0.00,,---,0.00,VWS V14.01,2013-05-04 15:24:00,
2013-05-04 11:29:00,54.1,41.4,30.21,South,174,0.0,6.0,62,0.00,,---,0.00,VWS V14.01,2013-05-04 15:29:00,
2013-05-04 11:34:00,54.8,42.9,30.21,East,79,4.0,4.0,64,0.00,,---,0.00,VWS V14.01,2013-05-04 15:34:00,
2013-05-04 11:39:00,54.7,42.0,30.21,SE,128,1.0,9.0,62,0.00,,---,0.00,VWS V14.01,2013-05-04 15:39:00,
2013-05-04 11:44:00,55.0,43.1,30.21,NE,36,0.0,12.0,64,0.00,,---,0.00,VWS V14.01,2013-05-04 15:44:00,
2013-05-04 11:49:00,54.8,42.5,30.20,ENE,78,3.0,11.0,63,0.00,,---,0.00,VWS V14.01,2013-05-04 15:49:00,
2013-05-04 11:54:00,54.7,43.2,30.20,SE,137,0.0,7.0,65,0.00,,---,0.00,VWS V14.01,2013-05-04 15:54:00,
2013-05-04 11:59:00,55.6,43.2,30.20,ESE,106,2.0,10.0,63,0.00,,---,0.00,VWS V14.01,2013-05-04 15:59:00,
2013-05-04 12:04:00,55.3,42.9,30.20,NW,309,0.0,7.0,63,0.00,,---,0.00,VWS V14.01,2013-05-04 16:04:00,
2013-05-04 12:09:00,56.2,44.6,30.20,ESE,113,6.0,8.0,65,0.00,,---,0.00,VWS V14.01,2013-05-04 16:09:00,
2013-05-04 12:14:00,56.3,42.2,30.20,ENE,73,3.0,7.0,59,0.00,,---,0.00,VWS V14.01,2013-05-04 16:14:00,
2013-05-04 12:19:00,56.3,44.7,30.20,SSE,155,3.0,8.0,65,0.00,,---,0.00,VWS V14.01,2013-05-04 16:19:00,
2013-05-04 12:24:00,56.9,45.3,30.20,East,88,4.0,6.0,65,0.00,,---,0.00,VWS V14.01,2013-05-04 16:24:00,
2013-05-04 12:29:00,56.9,42.3,30.20,East,88,0.0,10.0,58,0.00,,---,0.00,VWS V14.01,2013-05-04 16:29:00,
2013-05-04 12:34:00,57.2,41.2,30.19,East,90,0.0,6.0,55,0.00,,---,0.00,VWS V14.01,2013-05-04 16:34:00,
2013-05-04 12:39:00,57.5,41.0,30.19,SSE,154,3.0,7.0,54,0.00,,---,0.00,VWS V14.01,2013-05-04 16:39:00,
2013-05-04 12:44:00,57.5,41.0,30.19,NNE,22,0.0,7.0,54,0.00,,---,0.00,VWS V14.01,2013-05-04 16:44:00,
2013-05-04 12:49:00,57.6,42.5,30.18,SSE,163,6.0,6.0,57,0.00,,---,0.00,VWS V14.01,2013-05-04 16:49:00,
2013-05-04 12:54:00,57.5,40.5,30.18,East,98,7.0,11.0,53,0.00,,---,0.00,VWS V14.01,2013-05-04 16:54:00,
2013-05-04 12:59:00,58.0,40.5,30.18,East,90,9.0,11.0,52,0.00,,---,0.00,VWS V14.01,2013-05-04 16:59:00,
2013-05-04 13:04:00,57.6,40.1,30.18,ESE,119,0.0,8.0,52,0.00,,---,0.00,VWS V14.01,2013-05-04 17:04:00,
2013-05-04 13:09:00,58.4,41.3,30.18,East,98,0.0,11.0,53,0.00,,---,0.00,VWS V14.01,2013-05-04 17:09:00,
2013-05-04 13:14:00,59.2,42.6,30.18,SE,143,3.0,6.0,54,0.00,,---,0.00,VWS V14.01,2013-05-04 17:14:00,
2013-05-04 13:19:00,60.2,42.0,30.18,East,95,0.0,2.0,51,0.00,,---,0.00,VWS V14.01,2013-05-04 17:19:00,
2013-05-04 13:24:00,59.9,40.7,30.18,East,88,5.0,10.0,49,0.00,,---,0.00,VWS V14.01,2013-05-04 17:24:00,
2013-05-04 13:29:00,60.1,42.4,30.18,ESE,117,4.0,8.0,52,0.00,,---,0.00,VWS V14.01,2013-05-04 17:29:00,
2013-05-04 13:34:00,59.8,43.1,30.18,East,90,0.0,10.0,54,0.00,,---,0.00,VWS V14.01,2013-05-04 17:34:00,
2013-05-04 13:38:00,61.0,44.2,30.18,SSE,156,3.0,7.0,54,0.00,,---,0.00,VWS V14.01,2013-05-04 17:38:00,
2013-05-04 13:44:00,61.2,41.9,30.18,SE,128,4.0,13.0,49,0.00,,---,0.00,VWS V14.01,2013-05-04 17:44:00,
2013-05-04 13:49:00,60.5,42.8,30.17,SE,128,4.0,12.0,52,0.00,,---,0.00,VWS V14.01,2013-05-04 17:49:00,
2013-05-04 13:54:00,60.7,44.0,30.17,East,82,5.0,7.0,54,0.00,,---,0.00,VWS V14.01,2013-05-04 17:54:00,
2013-05-04 13:59:00,61.0,45.2,30.17,NNE,16,0.0,10.0,56,0.00,,---,0.00,VWS V14.01,2013-05-04 17:59:00,
2013-05-04 14:04:00,61.2,41.4,30.16,SSE,165,4.0,14.0,48,0.00,,---,0.00,VWS V14.01,2013-05-04 18:04:00,
2013-05-04 14:08:00,61.3,44.0,30.16,East,84,3.0,9.0,53,0.00,,---,0.00,VWS V14.01,2013-05-04 18:08:00,
2013-05-04 14:13:00,61.2,43.0,30.16,ESE,117,4.0,10.0,51,0.00,,---,0.00,VWS V14.01,2013-05-04 18:13:00,
2013-05-04 14:18:00,61.6,44.3,30.17,East,86,3.0,10.0,53,0.00,,---,0.00,VWS V14.01,2013-05-04 18:18:00,
2013-05-04 14:23:00,62.0,43.7,30.17,SSE,164,4.0,11.0,51,0.00,,---,0.00,VWS V14.01,2013-05-04 18:23:00,
2013-05-04 14:28:00,62.1,41.7,30.17,East,93,5.0,12.0,47,0.00,,---,0.00,VWS V14.01,2013-05-04 18:28:00,
2013-05-04 14:33:00,61.6,41.2,30.16,SE,131,2.0,11.0,47,0.00,,---,0.00,VWS V14.01,2013-05-04 18:33:00,
2013-05-04 14:38:00,62.1,43.8,30.16,East,95,6.0,7.0,51,0.00,,---,0.00,VWS V14.01,2013-05-04 18:38:00,
2013-05-04 14:43:00,62.0,42.6,30.16,SE,140,4.0,8.0,49,0.00,,---,0.00,VWS V14.01,2013-05-04 18:43:00,
2013-05-04 14:48:00,62.6,42.1,30.15,East,88,5.0,6.0,47,0.00,,---,0.00,VWS V14.01,2013-05-04 18:48:00,
2013-05-04 14:53:00,62.6,41.5,30.15,NE,52,0.0,4.0,46,0.00,,---,0.00,VWS V14.01,2013-05-04 18:53:00,
2013-05-04 14:58:00,63.2,42.7,30.15,ESE,113,3.0,8.0,47,0.00,,---,0.00,VWS V14.01,2013-05-04 18:58:00,
2013-05-04 15:03:00,63.5,42.4,30.15,ENE,72,0.0,9.0,46,0.00,,---,0.00,VWS V14.01,2013-05-04 19:03:00,
2013-05-04 15:08:00,63.4,43.4,30.15,East,92,0.0,11.0,48,0.00,,---,0.00,VWS V14.01,2013-05-04 19:08:00,
2013-05-04 15:13:00,63.2,44.3,30.15,SE,125,6.0,11.0,50,0.00,,---,0.00,VWS V14.01,2013-05-04 19:13:00,
2013-05-04 15:18:00,62.7,41.6,30.15,SE,128,0.0,11.0,46,0.00,,---,0.00,VWS V14.01,2013-05-04 19:18:00,
2013-05-04 15:23:00,63.1,43.1,30.15,East,92,0.0,9.0,48,0.00,,---,0.00,VWS V14.01,2013-05-04 19:23:00,
2013-05-04 15:28:00,63.7,44.7,30.15,South,169,3.0,5.0,50,0.00,,---,0.00,VWS V14.01,2013-05-04 19:28:00,
2013-05-04 15:33:00,63.2,43.7,30.14,NE,49,1.0,14.0,49,0.00,,---,0.00,VWS V14.01,2013-05-04 19:33:00,
2013-05-04 15:38:00,64.3,44.2,30.14,ESE,112,11.0,11.0,48,0.00,,---,0.00,VWS V14.01,2013-05-04 19:38:00,
2013-05-04 15:43:00,63.5,40.0,30.14,East,93,1.0,11.0,42,0.00,,---,0.00,VWS V14.01,2013-05-04 19:43:00,
2013-05-04 15:48:00,63.2,40.3,30.13,SE,130,3.0,11.0,43,0.00,,---,0.00,VWS V14.01,2013-05-04 19:48:00,
2013-05-04 15:53:00,63.4,41.1,30.13,SSE,153,0.0,6.0,44,0.00,,---,0.00,VWS V14.01,2013-05-04 19:53:00,
2013-05-04 15:58:00,63.9,41.6,30.13,ENE,76,3.0,11.0,44,0.00,,---,0.00,VWS V14.01,2013-05-04 19:58:00,
2013-05-04 16:03:00,64.2,41.8,30.13,ENE,62,2.0,12.0,44,0.00,,---,0.00,VWS V14.01,2013-05-04 20:03:00,
2013-05-04 16:08:00,63.9,42.7,30.13,NE,55,0.0,13.0,46,0.00,,---,0.00,VWS V14.01,2013-05-04 20:08:00,
2013-05-04 16:13:00,64.0,41.7,30.13,SE,126,3.0,12.0,44,0.00,,---,0.00,VWS V14.01,2013-05-04 20:13:00,
2013-05-04 16:18:00,63.9,41.0,30.12,East,84,0.0,8.0,43,0.00,,---,0.00,VWS V14.01,2013-05-04 20:18:00,
2013-05-04 16:23:00,63.9,41.6,30.12,ESE,110,3.0,10.0,44,0.00,,---,0.00,VWS V14.01,2013-05-04 20:23:00,
2013-05-04 16:28:00,63.4,42.3,30.12,East,93,0.0,11.0,46,0.00,,---,0.00,VWS V14.01,2013-05-04 20:28:00,
2013-05-04 16:33:00,64.2,43.6,30.12,SSE,153,3.0,5.0,47,0.00,,---,0.00,VWS V14.01,2013-05-04 20:33:00,
2013-05-04 16:38:00,63.7,41.4,30.12,ESE,119,6.0,11.0,44,0.00,,---,0.00,VWS V14.01,2013-05-04 20:38:00,
2013-05-04 16:43:00,63.9,42.7,30.12,ESE,111,6.0,13.0,46,0.00,,---,0.00,VWS V14.01,2013-05-04 20:43:00,
2013-05-04 16:48:00,63.2,41.5,30.12,SE,125,6.0,13.0,45,0.00,,---,0.00,VWS V14.01,2013-05-04 20:48:00,
2013-05-04 16:53:00,63.9,40.4,30.12,South,181,3.0,7.0,42,0.00,,---,0.00,VWS V14.01,2013-05-04 20:53:00,
2013-05-04 16:58:00,63.9,41.6,30.12,SSE,156,0.0,11.0,44,0.00,,---,0.00,VWS V14.01,2013-05-04 20:58:00,
2013-05-04 17:03:00,63.4,40.5,30.12,SW,235,2.0,13.0,43,0.00,,---,0.00,VWS V14.01,2013-05-04 21:03:00,
2013-05-04 17:08:00,63.9,41.0,30.12,South,173,3.0,9.0,43,0.00,,---,0.00,VWS V14.01,2013-05-04 21:08:00,
2013-05-04 17:13:00,63.4,39.3,30.12,South,178,4.0,9.0,41,0.00,,---,0.00,VWS V14.01,2013-05-04 21:13:00,
2013-05-04 17:18:00,63.1,40.9,30.12,SSE,161,6.0,15.0,44,0.00,,---,0.00,VWS V14.01,2013-05-04 21:18:00,
2013-05-04 17:23:00,63.1,39.7,30.12,SSE,161,0.0,10.0,42,0.00,,---,0.00,VWS V14.01,2013-05-04 21:23:00,
2013-05-04 17:28:00,62.9,40.1,30.12,East,79,1.0,10.0,43,0.00,,---,0.00,VWS V14.01,2013-05-04 21:28:00,
2013-05-04 17:33:00,62.6,39.8,30.12,ESE,105,4.0,11.0,43,0.00,,---,0.00,VWS V14.01,2013-05-04 21:33:00,
2013-05-04 17:38:00,62.7,38.7,30.12,SE,126,5.0,10.0,41,0.00,,---,0.00,VWS V14.01,2013-05-04 21:38:00,
2013-05-04 17:43:00,62.7,39.9,30.12,ESE,122,0.0,11.0,43,0.00,,---,0.00,VWS V14.01,2013-05-04 21:43:00,
2013-05-04 17:48:00,62.9,40.1,30.12,East,82,6.0,11.0,43,0.00,,---,0.00,VWS V14.01,2013-05-04 21:48:00,
2013-05-04 17:53:00,62.9,38.9,30.12,SE,143,4.0,10.0,41,0.00,,---,0.00,VWS V14.01,2013-05-04 21:53:00,
2013-05-04 17:58:00,62.6,38.6,30.12,ESE,103,7.0,7.0,41,0.00,,---,0.00,VWS V14.01,2013-05-04 21:58:00,
2013-05-04 18:03:00,62.4,40.2,30.12,SE,140,0.0,9.0,44,0.00,,---,0.00,VWS V14.01,2013-05-04 22:03:00,
2013-05-04 18:08:00,62.3,40.7,30.12,South,174,6.0,7.0,45,0.00,,---,0.00,VWS V14.01,2013-05-04 22:08:00,
2013-05-04 18:13:00,62.3,41.3,30.12,East,96,0.0,5.0,46,0.00,,---,0.00,VWS V14.01,2013-05-04 22:13:00,
2013-05-04 18:18:00,62.7,38.7,30.12,East,96,5.0,11.0,41,0.00,,---,0.00,VWS V14.01,2013-05-04 22:18:00,
2013-05-04 18:23:00,62.4,40.8,30.12,SSE,157,0.0,8.0,45,0.00,,---,0.00,VWS V14.01,2013-05-04 22:23:00,
2013-05-04 18:28:00,62.4,39.6,30.12,ESE,117,7.0,7.0,43,0.00,,---,0.00,VWS V14.01,2013-05-04 22:28:00,
2013-05-04 18:33:00,62.3,40.1,30.12,South,183,0.0,7.0,44,0.00,,---,0.00,VWS V14.01,2013-05-04 22:33:00,
2013-05-04 18:38:00,62.1,39.4,30.12,SE,140,2.0,9.0,43,0.00,,---,0.00,VWS V14.01,2013-05-04 22:38:00,
2013-05-04 18:43:00,61.8,41.4,30.12,SSE,151,0.0,7.0,47,0.00,,---,0.00,VWS V14.01,2013-05-04 22:43:00,
2013-05-04 18:48:00,61.6,39.5,30.11,East,86,6.0,13.0,44,0.00,,---,0.00,VWS V14.01,2013-05-04 22:48:00,
2013-05-04 18:53:00,61.3,40.4,30.11,SE,146,2.0,6.0,46,0.00,,---,0.00,VWS V14.01,2013-05-04 22:53:00,
2013-05-04 18:58:00,61.2,40.3,30.11,SE,133,0.0,5.0,46,0.00,,---,0.00,VWS V14.01,2013-05-04 22:58:00,
2013-05-04 19:03:00,60.9,40.0,30.12,ESE,119,7.0,7.0,46,0.00,,---,0.00,VWS V14.01,2013-05-04 23:03:00,
2013-05-04 19:08:00,60.5,41.3,30.12,East,101,0.0,6.0,49,0.00,,---,0.00,VWS V14.01,2013-05-04 23:08:00,
2013-05-04 19:13:00,60.4,40.6,30.12,SE,135,3.0,5.0,48,0.00,,---,0.00,VWS V14.01,2013-05-04 23:13:00,
2013-05-04 19:18:00,60.4,40.6,30.12,SE,135,3.0,3.0,48,0.00,,---,0.00,VWS V14.01,2013-05-04 23:18:00,
2013-05-04 19:23:00,60.4,40.6,30.12,SE,135,3.0,3.0,48,0.00,,---,0.00,VWS V14.01,2013-05-04 23:23:00,
2013-05-04 19:28:00,60.4,40.6,30.12,SE,135,3.0,3.0,48,0.00,,---,0.00,VWS V14.01,2013-05-04 23:28:00,
2013-05-04 19:33:00,60.4,40.6,30.12,SE,135,3.0,3.0,48,0.00,,---,0.00,VWS V14.01,2013-05-04 23:33:00,
2013-05-04 19:38:00,60.4,40.6,30.12,SE,135,3.0,3.0,48,0.00,,---,0.00,VWS V14.01,2013-05-04 23:38:00,
2013-05-04 19:43:00,60.4,40.6,30.12,SE,135,3.0,3.0,48,0.00,,---,0.00,VWS V14.01,2013-05-04 23:43:00,
2013-05-04 19:48:00,60.4,40.6,30.11,SE,135,3.0,3.0,48,0.00,,---,0.00,VWS V14.01,2013-05-04 23:48:00,
2013-05-04 19:53:00,60.4,40.6,30.11,SE,135,3.0,3.0,48,0.00,,---,0.00,VWS V14.01,2013-05-04 23:53:00,
2013-05-04 19:58:00,60.4,40.6,30.11,SE,135,3.0,3.0,48,0.00,,---,0.00,VWS V14.01,2013-05-04 23:58:00,
2013-05-04 20:03:00,60.4,40.6,30.12,SE,135,3.0,3.0,48,0.00,,---,0.00,VWS V14.01,2013-05-05 00:03:00,
2013-05-04 20:08:00,60.4,40.6,30.12,SE,135,3.0,3.0,48,0.00,,---,0.00,VWS V14.01,2013-05-05 00:08:00,
2013-05-04 20:13:00,60.4,40.6,30.12,SE,135,3.0,3.0,48,0.00,,---,0.00,VWS V14.01,2013-05-05 00:13:00,
2013-05-04 20:18:00,60.4,40.6,30.12,SE,135,3.0,3.0,48,0.00,,---,0.00,VWS V14.01,2013-05-05 00:18:00,
2013-05-04 20:23:00,60.4,40.6,30.12,SE,135,3.0,3.0,48,0.00,,---,0.00,VWS V14.01,2013-05-05 00:23:00,
2013-05-04 20:28:00,60.4,40.6,30.12,SE,135,3.0,3.0,48,0.00,,---,0.00,VWS V14.01,2013-05-05 00:28:00,
2013-05-04 20:33:00,60.4,40.6,30.12,SE,135,3.0,3.0,48,0.00,,---,0.00,VWS V14.01,2013-05-05 00:33:00,
2013-05-04 20:38:00,60.4,40.6,30.12,SE,135,3.0,3.0,48,0.00,,---,0.00,VWS V14.01,2013-05-05 00:38:00,
2013-05-04 20:43:00,60.4,40.6,30.12,SE,135,3.0,3.0,48,0.00,,---,0.00,VWS V14.01,2013-05-05 00:43:00,
2013-05-04 20:48:00,60.4,40.6,30.13,SE,135,3.0,3.0,48,0.00,,---,0.00,VWS V14.01,2013-05-05 00:48:00,
2013-05-04 20:53:00,60.4,40.6,30.13,SE,135,3.0,3.0,48,0.00,,---,0.00,VWS V14.01,2013-05-05 00:53:00,
2013-05-04 20:58:00,60.4,40.6,30.13,SE,135,3.0,3.0,48,0.00,,---,0.00,VWS V14.01,2013-05-05 00:58:00,
2013-05-04 21:03:00,60.4,40.6,30.13,SE,135,3.0,3.0,48,0.00,,---,0.00,VWS V14.01,2013-05-05 01:03:00,
2013-05-04 21:08:00,60.4,40.6,30.13,SE,135,3.0,3.0,48,0.00,,---,0.00,VWS V14.01,2013-05-05 01:08:00,
2013-05-04 21:13:00,60.4,40.6,30.13,SE,135,3.0,3.0,48,0.00,,---,0.00,VWS V14.01,2013-05-05 01:13:00,
2013-05-04 21:18:00,60.4,40.6,30.14,SE,135,3.0,3.0,48,0.00,,---,0.00,VWS V14.01,2013-05-05 01:18:00,
2013-05-04 21:23:00,60.4,40.6,30.14,SE,135,3.0,3.0,48,0.00,,---,0.00,VWS V14.01,2013-05-05 01:23:00,
2013-05-04 21:28:00,60.4,40.6,30.14,SE,135,3.0,3.0,48,0.00,,---,0.00,VWS V14.01,2013-05-05 01:28:00,
2013-05-04 21:33:00,60.4,40.6,30.15,SE,135,3.0,3.0,48,0.00,,---,0.00,VWS V14.01,2013-05-05 01:33:00,
2013-05-04 21:38:00,60.4,40.6,30.15,SE,135,3.0,3.0,48,0.00,,---,0.00,VWS V14.01,2013-05-05 01:38:00,
2013-05-04 21:43:00,60.4,40.6,30.15,SE,135,3.0,3.0,48,0.00,,---,0.00,VWS V14.01,2013-05-05 01:43:00,
2013-05-04 21:48:00,60.4,40.6,30.15,SE,135,3.0,3.0,48,0.00,,---,0.00,VWS V14.01,2013-05-05 01:48:00,
2013-05-04 21:53:00,60.4,40.6,30.15,SE,135,3.0,3.0,48,0.00,,---,0.00,VWS V14.01,2013-05-05 01:53:00,
2013-05-04 21:58:00,60.4,40.6,30.15,SE,135,3.0,3.0,48,0.00,,---,0.00,VWS V14.01,2013-05-05 01:58:00,
2013-05-04 22:03:00,60.4,40.6,30.16,SE,135,3.0,3.0,48,0.00,,---,0.00,VWS V14.01,2013-05-05 02:03:00,
2013-05-04 22:08:00,60.4,40.6,30.16,SE,135,3.0,3.0,48,0.00,,---,0.00,VWS V14.01,2013-05-05 02:08:00,
2013-05-04 22:13:00,60.4,40.6,30.16,SE,135,3.0,3.0,48,0.00,,---,0.00,VWS V14.01,2013-05-05 02:13:00,
2013-05-04 22:18:00,60.4,40.6,30.16,SE,135,3.0,3.0,48,0.00,,---,0.00,VWS V14.01,2013-05-05 02:18:00,
2013-05-04 22:23:00,60.4,40.6,30.16,SE,135,3.0,3.0,48,0.00,,---,0.00,VWS V14.01,2013-05-05 02:23:00,
2013-05-04 22:28:00,60.4,40.6,30.16,SE,135,3.0,3.0,48,0.00,,---,0.00,VWS V14.01,2013-05-05 02:28:00,
2013-05-04 22:33:00,60.4,40.6,30.15,SE,135,3.0,3.0,48,0.00,,---,0.00,VWS V14.01,2013-05-05 02:33:00,
2013-05-04 22:38:00,60.4,40.6,30.15,SE,135,3.0,3.0,48,0.00,,---,0.00,VWS V14.01,2013-05-05 02:38:00,
2013-05-04 22:43:00,60.4,40.6,30.15,SE,135,3.0,3.0,48,0.00,,---,0.00,VWS V14.01,2013-05-05 02:43:00,
2013-05-04 22:48:00,60.4,40.6,30.15,SE,135,3.0,3.0,48,0.00,,---,0.00,VWS V14.01,2013-05-05 02:48:00,
2013-05-04 22:53:00,60.4,40.6,30.15,SE,135,3.0,3.0,48,0.00,,---,0.00,VWS V14.01,2013-05-05 02:53:00,
2013-05-04 22:58:00,60.4,40.6,30.15,SE,135,3.0,3.0,48,0.00,,---,0.00,VWS V14.01,2013-05-05 02:58:00,
2013-05-04 23:03:00,60.4,40.6,30.15,SE,135,3.0,3.0,48,0.00,,---,0.00,VWS V14.01,2013-05-05 03:03:00,
2013-05-04 23:08:00,60.4,40.6,30.15,SE,135,3.0,3.0,48,0.00,,---,0.00,VWS V14.01,2013-05-05 03:08:00,
2013-05-04 23:13:00,60.4,40.6,30.15,SE,135,3.0,3.0,48,0.00,,---,0.00,VWS V14.01,2013-05-05 03:13:00,
2013-05-04 23:18:00,60.4,40.6,30.15,SE,135,3.0,3.0,48,0.00,,---,0.00,VWS V14.01,2013-05-05 03:18:00,
2013-05-04 23:23:00,60.4,40.6,30.15,SE,135,3.0,3.0,48,0.00,,---,0.00,VWS V14.01,2013-05-05 03:23:00,
2013-05-04 23:28:00,60.4,40.6,30.15,SE,135,3.0,3.0,48,0.00,,---,0.00,VWS V14.01,2013-05-05 03:28:00,
2013-05-04 23:33:00,60.4,40.6,30.15,SE,135,3.0,3.0,48,0.00,,---,0.00,VWS V14.01,2013-05-05 03:33:00,
2013-05-04 23:38:00,60.4,40.6,30.15,SE,135,3.0,3.0,48,0.00,,---,0.00,VWS V14.01,2013-05-05 03:38:00,
2013-05-04 23:43:00,60.4,40.6,30.15,SE,135,3.0,3.0,48,0.00,,---,0.00,VWS V14.01,2013-05-05 03:43:00,
2013-05-04 23:48:00,60.4,40.6,30.15,SE,135,3.0,3.0,48,0.00,,---,0.00,VWS V14.01,2013-05-05 03:48:00,
2013-05-04 23:53:00,60.4,40.6,30.15,SE,135,3.0,3.0,48,0.00,,---,0.00,VWS V14.01,2013-05-05 03:53:00,
2013-05-04 23:58:00,60.4,40.6,30.15,SE,135,3.0,3.0,48,0.00,,---,0.00,VWS V14.01,2013-05-05 03:58:00,